When you browse on this site, cookies collect data to enhance your experience and personalize the content and advertising you see.
Visit our Privacy Policy to learn more. By continuing to use the site, you agree to this use of cookies and data.
  • In Österreich
  • Länderverzeichnis
  • Für 7 Tage
  • Wassertemperatur
  • Wetterkarte
  • News
  • Widgets
  • user-avatar
    Anmelden

    Stündliche Wetter Zemlyanka

    Heute, 23 Februar, Sonntag

    Zeit Temperatur Niederschläge Wind Luftdruck Luftfeuchtigkeit
    00:00 -8°C° 0 mm 1 m/S 760 mmHg 88%
    01:00 -8°C° 0 mm 1 m/S 760 mmHg 88%
    02:00 -8°C° 0 mm 1 m/S 760 mmHg 89%
    03:00 -8°C° 0 mm 1 m/S 760 mmHg 90%
    04:00 -9°C° 0 mm 1 m/S 760 mmHg 84%
    05:00 -9°C° 0 mm 1 m/S 760 mmHg 87%
    06:00 -10°C° 0 mm 2 m/S 760 mmHg 89%
    07:00 -12°C° 0 mm 2 m/S 759 mmHg 91%
    08:00 -10°C° 0 mm 2 m/S 759 mmHg 92%
    09:00 -10°C° 0 mm 3 m/S 759 mmHg 93%
    10:00 -10°C° 0 mm 3 m/S 758 mmHg 94%
    11:00 -10°C° 0 mm 4 m/S 758 mmHg 93%
    12:00 -9°C° 0 mm 4 m/S 757 mmHg 93%
    13:00 -10°C° 0 mm 5 m/S 756 mmHg 93%
    14:00 -8°C° 0 mm 5 m/S 756 mmHg 93%
    15:00 -8°C° 0 mm 5 m/S 756 mmHg 92%
    16:00 -8°C° 0 mm 5 m/S 755 mmHg 92%
    17:00 -9°C° 0 mm 6 m/S 754 mmHg 92%
    18:00 -9°C° 0 mm 6 m/S 754 mmHg 93%
    19:00 -10°C° 0 mm 6 m/S 753 mmHg 94%
    20:00 -10°C° 0 mm 6 m/S 753 mmHg 94%
    21:00 -10°C° 0 mm 6 m/S 752 mmHg 95%
    22:00 -10°C° 0 mm 6 m/S 752 mmHg 95%
    23:00 -9°C° 0 mm 6 m/S 751 mmHg 95%

    Morgen, 24 Februar, Montag

    Zeit Temperatur Niederschläge Wind Luftdruck Luftfeuchtigkeit
    00:00 -8°C° 0 mm 6 m/S 750 mmHg 95%
    01:00 -8°C° 0 mm 7 m/S 749 mmHg 95%
    02:00 -8°C° 0.3 mm 7 m/S 748 mmHg 95%
    03:00 -7°C° 0.3 mm 7 m/S 747 mmHg 95%
    04:00 -7°C° 0.3 mm 7 m/S 747 mmHg 95%
    05:00 -7°C° 0.5 mm 7 m/S 746 mmHg 95%
    06:00 -6°C° 0.5 mm 7 m/S 745 mmHg 95%
    07:00 -6°C° 0.5 mm 7 m/S 744 mmHg 96%
    08:00 -4°C° 0.4 mm 7 m/S 744 mmHg 96%
    09:00 -4°C° 0.4 mm 8 m/S 744 mmHg 97%
    10:00 -2°C° 0.4 mm 8 m/S 743 mmHg 98%
    11:00 -4°C° 0.5 mm 8 m/S 743 mmHg 98%
    12:00 -4°C° 0.5 mm 8 m/S 743 mmHg 98%
    13:00 -4°C° 0.5 mm 8 m/S 742 mmHg 97%
    14:00 -4°C° 0.2 mm 8 m/S 742 mmHg 97%
    15:00 -3°C° 0.2 mm 7 m/S 742 mmHg 97%
    16:00 -2°C° 0.2 mm 7 m/S 743 mmHg 97%
    17:00 -2°C° 0.2 mm 6 m/S 743 mmHg 97%
    18:00 -2°C° 0.2 mm 6 m/S 743 mmHg 97%
    19:00 -1°C° 0.2 mm 5 m/S 743 mmHg 97%
    20:00 -1°C° 0 mm 5 m/S 743 mmHg 97%
    21:00 -1°C° 0 mm 4 m/S 743 mmHg 97%
    22:00 -1°C° 0 mm 4 m/S 744 mmHg 97%
    23:00 -1°C° 0 mm 4 m/S 743 mmHg 97%

    übermorgen, 25 Februar, Dienstag

    Zeit Temperatur Niederschläge Wind Luftdruck Luftfeuchtigkeit
    00:00 -1°C° 0 mm 4 m/S 743 mmHg 97%
    01:00 -1°C° 0 mm 4 m/S 743 mmHg 97%
    02:00 -1°C° 0.3 mm 4 m/S 743 mmHg 97%
    03:00 -1°C° 0.3 mm 4 m/S 743 mmHg 98%
    04:00 -1°C° 0.3 mm 5 m/S 743 mmHg 98%
    05:00 -1°C° 0.2 mm 5 m/S 742 mmHg 98%
    06:00 -1°C° 0.2 mm 5 m/S 742 mmHg 98%
    07:00 -2°C° 0.2 mm 6 m/S 742 mmHg 98%
    08:00 -2°C° 0.2 mm 6 m/S 741 mmHg 98%
    09:00 -2°C° 0.2 mm 6 m/S 741 mmHg 98%
    10:00 -2°C° 0.2 mm 6 m/S 741 mmHg 99%
    11:00 -2°C° 0.5 mm 6 m/S 740 mmHg 99%
    12:00 -2°C° 0.5 mm 7 m/S 740 mmHg 99%
    13:00 -2°C° 0.5 mm 7 m/S 739 mmHg 99%
    14:00 -2°C° 0 mm 7 m/S 739 mmHg 99%
    15:00 -2°C° 0 mm 8 m/S 738 mmHg 99%
    16:00 -1°C° 0 mm 8 m/S 737 mmHg 98%
    17:00 -1°C° 0.7 mm 8 m/S 737 mmHg 98%
    18:00 -1°C° 0.7 mm 7 m/S 736 mmHg 98%
    19:00 -1°C° 0.7 mm 6 m/S 736 mmHg 98%
    20:00 -2°C° 0.8 mm 6 m/S 735 mmHg 98%
    21:00 -1°C° 0.8 mm 5 m/S 735 mmHg 97%
    22:00 -1°C° 0.8 mm 4 m/S 735 mmHg 97%
    23:00 -2°C° 0 mm 4 m/S 735 mmHg 97%

    26 Februar, Mittwoch

    Zeit Temperatur Niederschläge Wind Luftdruck Luftfeuchtigkeit
    00:00 -2°C° 0 mm 4 m/S 735 mmHg 96%
    01:00 -2°C° 0 mm 4 m/S 735 mmHg 96%
    02:00 -2°C° 0.1 mm 4 m/S 735 mmHg 96%
    03:00 -2°C° 0.1 mm 4 m/S 735 mmHg 97%
    04:00 -2°C° 0.1 mm 4 m/S 736 mmHg 97%
    05:00 -4°C° 0.1 mm 5 m/S 737 mmHg 95%
    06:00 -5°C° 0.1 mm 6 m/S 737 mmHg 93%
    07:00 -7°C° 0.1 mm 7 m/S 738 mmHg 92%
    08:00 -7°C° 0 mm 7 m/S 739 mmHg 91%
    09:00 -8°C° 0 mm 8 m/S 740 mmHg 91%
    10:00 -8°C° 0 mm 8 m/S 741 mmHg 90%
    11:00 -8°C° 0 mm 7 m/S 741 mmHg 90%
    12:00 -8°C° 0 mm 7 m/S 742 mmHg 89%
    13:00 -8°C° 0 mm 7 m/S 742 mmHg 89%
    14:00 -8°C° 0 mm 6 m/S 743 mmHg 89%
    15:00 -8°C° 0 mm 6 m/S 744 mmHg 89%
    16:00 -8°C° 0 mm 6 m/S 744 mmHg 88%
    17:00 -8°C° 0 mm 5 m/S 745 mmHg 89%
    18:00 -9°C° 0 mm 4 m/S 746 mmHg 90%
    19:00 -10°C° 0 mm 3 m/S 746 mmHg 91%
    20:00 -10°C° 0 mm 3 m/S 747 mmHg 92%
    21:00 -9°C° 0 mm 3 m/S 747 mmHg 92%
    22:00 -9°C° 0 mm 3 m/S 747 mmHg 92%
    23:00 -8°C° 0 mm 3 m/S 748 mmHg 92%

    27 Februar, Donnerstag

    Zeit Temperatur Niederschläge Wind Luftdruck Luftfeuchtigkeit
    00:00 -9°C° 0 mm 4 m/S 748 mmHg 91%
    01:00 -8°C° 0 mm 4 m/S 748 mmHg 90%
    02:00 -7°C° 0 mm 4 m/S 748 mmHg 92%
    03:00 -6°C° 0 mm 5 m/S 748 mmHg 94%
    04:00 -5°C° 0 mm 5 m/S 748 mmHg 95%
    05:00 -4°C° 0 mm 5 m/S 748 mmHg 95%
    06:00 -4°C° 0 mm 6 m/S 748 mmHg 94%
    07:00 -3°C° 0 mm 6 m/S 748 mmHg 94%
    08:00 -3°C° 0 mm 6 m/S 749 mmHg 93%
    09:00 -3°C° 0 mm 6 m/S 749 mmHg 92%
    10:00 -2°C° 0 mm 6 m/S 750 mmHg 91%
    11:00 -2°C° 0 mm 6 m/S 750 mmHg 91%
    12:00 -2°C° 0 mm 6 m/S 750 mmHg 90%
    13:00 -2°C° 0 mm 7 m/S 751 mmHg 90%
    14:00 -2°C° 0 mm 6 m/S 751 mmHg 88%
    15:00 -2°C° 0 mm 6 m/S 751 mmHg 87%
    16:00 -1°C° 0 mm 5 m/S 751 mmHg 85%
    17:00 -1°C° 0 mm 5 m/S 751 mmHg 85%
    18:00 -1°C° 0 mm 5 m/S 751 mmHg 85%
    19:00 -1°C° 0 mm 5 m/S 751 mmHg 85%
    20:00 -1°C° 0 mm 5 m/S 751 mmHg 83%
    21:00 -1°C° 0 mm 5 m/S 751 mmHg 80%
    22:00 -2°C° 0 mm 6 m/S 751 mmHg 77%
    23:00 -2°C° 0 mm 6 m/S 751 mmHg 77%

    28 Februar, Freitag

    Zeit Temperatur Niederschläge Wind Luftdruck Luftfeuchtigkeit
    00:00 -1°C° 0 mm 5 m/S 751 mmHg 77%
    01:00 0°C° 0 mm 5 m/S 751 mmHg 77%
    02:00 -1°C° 0 mm 5 m/S 751 mmHg 77%
    03:00 -1°C° 0 mm 5 m/S 751 mmHg 77%
    04:00 -1°C° 0 mm 5 m/S 751 mmHg 78%
    05:00 -2°C° 0 mm 6 m/S 751 mmHg 78%
    06:00 -2°C° 0 mm 6 m/S 751 mmHg 78%
    07:00 -3°C° 0 mm 6 m/S 751 mmHg 78%
    08:00 -2°C° 0 mm 6 m/S 751 mmHg 78%
    09:00 -2°C° 0 mm 6 m/S 751 mmHg 78%
    10:00 -2°C° 0 mm 7 m/S 752 mmHg 78%
    11:00 -2°C° 0 mm 7 m/S 752 mmHg 78%
    12:00 -2°C° 0 mm 7 m/S 752 mmHg 78%
    13:00 -2°C° 0 mm 7 m/S 752 mmHg 78%
    14:00 -2°C° 0 mm 7 m/S 752 mmHg 78%
    15:00 -2°C° 0 mm 7 m/S 752 mmHg 78%
    16:00 -2°C° 0 mm 6 m/S 752 mmHg 78%
    17:00 -2°C° 0 mm 6 m/S 752 mmHg 79%
    18:00 -3°C° 0 mm 6 m/S 752 mmHg 81%
    19:00 -3°C° 0 mm 6 m/S 752 mmHg 82%
    20:00 -3°C° 0 mm 6 m/S 752 mmHg 83%
    21:00 -3°C° 0 mm 6 m/S 751 mmHg 85%
    22:00 -3°C° 0 mm 6 m/S 751 mmHg 86%
    23:00 -4°C° 0 mm 6 m/S 751 mmHg 86%
    Mehr zeigen